sat.trackr.live / text

‹ back to catalog

STARLINK-35395

NORAD 66014 · 2025-232K

PAYLOAD ACTIVE UNKNOWN

§ Identity

Operator
Country
US
Launch date
2025-10-16
Launch site
AFETR
Launch vehicle
Mass (kg)
RCS (m²)

Purposes: comms

External: N2YO · Heavens-Above · Gunter

§ Orbital elements

Epoch: 2026-05-25T02:04:32.000736Z

Period
94.11 min
Inclination
53.1612°
Eccentricity
0.0000251
Mean motion
15.30202620 rev/d
Perigee alt
475.0 km
Apogee alt
475.4 km
Semi-major
6,853.3 km
B*
4.2873e-4
RAAN
108.9511°
Arg perigee
206.6954°
Mean anomaly
153.4034°
Rev number
3,513

§ Raw data

STARLINK-353951 66014U 25232K   26145.08648149  .00012361  00000+0  42873-3 0  99982 66014  53.1612 108.9511 0000251 206.6954 153.4034 15.30202620 35135

JSON: /api/v1/satellites/66014 · /tle

For live sub-satellite position, see the globe view (requires WebGL).

§ Visibility from observer

Set your observer location to see the next 7 days of passes ≥ 10°. The values pass through the URL so the page stays shareable.

No JS? Fill the form by hand. The geolocation button needs JavaScript.